FLOCK 4BE 5

导读

FLOCK 4BE 5是美国Planet(原行星实验室)研制的Flock鸽群星座中的一颗3U遥感立方体卫星,单星重约5千克,该卫星计划于2024年8月16日发射,目前发射归属地暂未公布。Flock星座为商业遥感卫星网络,主打全球高重访率对地成像,可服务农业监测、环境变化观测等多领域应用,该星座通过持续补网发射维持在轨运行能力,FLOCK 4BE 5将补充星座的遥感观测容量。

基本信息
目录编号:
60559
目录名称:
FLOCK 4BE 5
国际标识:
2024-149CV
轨道中心:
EARTH
卫星名称:
FLOCK 4BE 5
卫星全名:
FLOCK 4BE 5
卫星状态:
在轨 (已飞行756 天)
发射日期:
2024-08-16 UTC
国别 :
美国 (US)
星等 :
--
该卫星已列入 空间交会检测服务 Space Conjunction Data Service (SCDS) ,当前飞行风险评估等级: 无高风险
轨道信息
数据来源 国际轨道数据
星历时间: 2026-09-11T01:10:55+0800
16小时前
查看轨道信息
半长轴: 6815.741km
偏心率: 0.0002543
轨道倾角: 97.381°
近地点辐角 1.922°
升交点赤经 338.663°
平近点角 358.204°
近地点: 435.87km
远地点: 439.338km
周期: 93.332分钟
每日圈数: 15.428837
详细信息
使用方式:
暂无
2D轨道图
3D轨道图
轨道高度分析图
轨道倾角分析图
轨道综合分析图
查看轨道综合分析图
与全量物体交会距离演化趋势
与全量物体交会风险概率演化趋势